Simultaneous Nadir Overpasses (SNOs) Predictions

Prediction of SNOs between AQUA and METOP-A Satellite Orbit:

Table of predicted SNOs for the next 14.0 days since TLE Epoch: 3/22/2019
Index Date (AQUA) Time (AQUA) Lat,Lon (AQUA) SZA (AQUA ) Date (METOP-A) Time (METOP-A) Lat,Lon (METOP-A) SZA (METOP-A ) Distance(km) Time Diff (sec)
1 03/24/2019 01:06:24 74.95, 155.11 73.86 03/24/2019 01:05:14 74.97, 155.13 73.90 2.57 70
2 03/24/2019 01:55:51 -74.99, -37.35 106.11 03/24/2019 01:55:55 -75.00, -37.47 106.10 3.69 4
3 03/24/2019 02:45:20 75.10, 130.01 74.00 03/24/2019 02:46:33 75.09, 130.11 73.97 3.10 73
4 03/26/2019 20:40:41 74.97,-138.49 72.76 03/26/2019 20:39:28 74.97,-138.49 72.78 0.08 73
5 03/26/2019 21:30:08 -75.01, 29.05 107.21 03/26/2019 21:30:09 -75.00, 28.92 107.22 3.71 1
6 03/26/2019 22:19:36 75.06,-163.46 72.84 03/26/2019 22:20:47 75.08,-163.51 72.85 2.46 71
7 03/29/2019 16:14:57 74.93, -71.98 71.62 03/29/2019 16:13:44 74.86, -72.38 71.58 14.49 73
8 03/29/2019 17:04:25 -75.03, 95.42 108.30 03/29/2019 17:04:22 -75.04, 95.45 108.29 1.47 3
9 03/29/2019 17:53:53 75.08, -97.08 71.75 03/29/2019 17:55:01 75.07, -97.13 71.73 1.97 68
10 04/01/2019 11:49:10 74.81, -5.22 70.38 04/01/2019 11:47:59 74.75, -6.27 70.38 31.45 71
11 04/01/2019 12:38:41 -75.05, 161.79 109.37 04/01/2019 12:38:35 -75.03, 161.83 109.39 2.94 6
12 04/01/2019 13:28:09 75.11, -30.72 70.68 04/01/2019 13:29:13 75.10, -30.63 70.66 2.65 64
13 04/04/2019 07:23:24 74.69, 61.52 69.16 04/04/2019 07:22:15 74.63, 59.84 69.20 49.83 69
14 04/04/2019 08:12:57 -75.04,-131.74 110.48 04/04/2019 08:12:49 -75.02,-131.79 110.49 2.39 8




NCC Satellite Simultaneous Nadir Overpasses (SNOs) Prediction Service
